| time (UTC) | temp F | wind direction | speed MPH | gust MPH | rain 1hr in | rain 24hr in | rain mn in | humidity % | barometer mb |
| 20260509021527 | 60 | 229 | 0.0 | 1.0 | 0.00 | 0.00 | 0.00 | 78 | 1011.5 |
| 20260509020039 | 60 | 229 | 0.0 | 0.0 | 0.00 | 0.00 | 0.00 | 77 | 1011.5 |
| 20260509014522 | 61 | 229 | 0.0 | 1.0 | 0.00 | 0.00 | 0.00 | 75 | 1011.3 |
| 20260509013035 | 62 | 229 | 0.0 | 0.0 | 0.00 | 0.00 | 0.00 | 74 | 1011.5 |
| 20260509011521 | 64 | 229 | 0.0 | 0.0 | 0.00 | 0.00 | 0.00 | 69 | 1011.2 |
| 20260509010022 | 65 | 229 | 0.0 | 1.0 | 0.00 | 0.00 | 0.00 | 66 | 1011.3 |
| 20260509004521 | 67 | 229 | 0.0 | 1.0 | 0.00 | 0.00 | 0.00 | 64 | 1011.2 |
| 20260509003020 | 68 | 229 | 0.0 | 1.0 | 0.00 | 0.00 | 0.00 | 62 | 1011.0 |
| 20260509001518 | 70 | 229 | 0.0 | 2.0 | 0.00 | 0.00 | 0.00 | 60 | 1011.1 |
| 20260509000016 | 71 | 231 | 0.0 | 2.0 | 0.00 | 0.00 | 0.00 | 58 | 1011.0 |
| 20260508234515 | 72 | 212 | 0.0 | 6.0 | 0.00 | 0.00 | 0.00 | 56 | 1011.2 |
| 20260508233016 | 73 | 218 | 1.0 | 5.0 | 0.00 | 0.00 | 0.00 | 57 | 1011.2 |
| 20260508231512 | 74 | 214 | 0.0 | 8.0 | 0.00 | 0.00 | 0.00 | 53 | 1011.3 |
| 20260508230011 | 75 | 236 | 1.0 | 4.0 | 0.00 | 0.00 | 0.00 | 48 | 1011.3 |
| 20260508224514 | 76 | 230 | 1.0 | 7.0 | 0.00 | 0.00 | 0.00 | 49 | 1011.5 |
| 20260508223007 | 76 | 166 | 2.0 | 8.0 | 0.00 | 0.00 | 0.00 | 48 | 1011.7 |
| 20260508221507 | 77 | 235 | 2.0 | 7.0 | 0.00 | 0.00 | 0.00 | 49 | 1011.8 |
| 20260508220002 | 77 | 244 | 1.0 | 6.0 | 0.00 | 0.00 | 0.00 | 50 | 1012.0 |
| 20260508214504 | 77 | 162 | 1.0 | 4.0 | 0.00 | 0.00 | 0.00 | 47 | 1011.9 |
| 20260508213059 | 76 | 172 | 5.0 | 11.0 | 0.00 | 0.00 | 0.00 | 48 | 1011.8 |
| 20260508211558 | 77 | 232 | 2.0 | 8.0 | 0.00 | 0.00 | 0.00 | 48 | 1011.9 |
| 20260508210054 | 77 | 240 | 1.0 | 6.0 | 0.00 | 0.00 | 0.00 | 48 | 1011.9 |
| 20260508204555 | 77 | 282 | 0.0 | 5.0 | 0.00 | 0.00 | 0.00 | 50 | 1012.1 |
| 20260508203049 | 76 | 137 | 0.0 | 6.0 | 0.00 | 0.00 | 0.00 | 50 | 1012.2 |
| 20260508201549 | 76 | 211 | 2.0 | 7.0 | 0.00 | 0.00 | 0.00 | 52 | 1012.3 |
| 20260508200103 | 76 | 307 | 1.0 | 6.0 | 0.00 | 0.00 | 0.00 | 46 | 1012.5 |
| 20260508194541 | 76 | 236 | 0.0 | 3.0 | 0.00 | 0.00 | 0.00 | 47 | 1012.7 |
| 20260508193051 | 75 | 163 | 1.0 | 5.0 | 0.00 | 0.00 | 0.00 | 49 | 1012.8 |
| 20260508191537 | 75 | 154 | 2.0 | 5.0 | 0.00 | 0.00 | 0.00 | 47 | 1013.3 |
| 20260508190033 | 74 | 167 | 1.0 | 4.0 | 0.00 | 0.00 | 0.00 | 50 | 1013.7 |
| 20260508184531 | 74 | 229 | 1.0 | 4.0 | 0.00 | 0.00 | 0.00 | 51 | 1014.2 |
| 20260508183029 | 73 | 193 | 4.0 | 11.0 | 0.00 | 0.00 | 0.00 | 51 | 1014.1 |
| 20260508181536 | 73 | 250 | 1.0 | 6.0 | 0.00 | 0.00 | 0.00 | 48 | 1014.4 |
| 20260508180029 | 72 | 214 | 2.0 | 6.0 | 0.00 | 0.00 | 0.00 | 50 | 1014.7 |
| 20260508174522 | 72 | 112 | 1.0 | 7.0 | 0.00 | 0.00 | 0.00 | 49 | 1015.0 |
| 20260508173021 | 72 | 174 | 3.0 | 7.0 | 0.00 | 0.00 | 0.00 | 51 | 1015.2 |
| 20260508171518 | 71 | 248 | 2.0 | 10.0 | 0.00 | 0.00 | 0.00 | 51 | 1015.5 |
| 20260508170013 | 71 | 212 | 1.0 | 9.0 | 0.00 | 0.00 | 0.00 | 53 | 1015.9 |
| 20260508164513 | 71 | 178 | 1.0 | 7.0 | 0.00 | 0.00 | 0.00 | 50 | 1016.4 |
| 20260508163013 | 70 | 215 | 0.0 | 10.0 | 0.00 | 0.00 | 0.00 | 52 | 1016.6 |
| 20260508161510 | 70 | 359 | 1.0 | 4.0 | 0.00 | 0.00 | 0.00 | 53 | 1016.6 |
| 20260508160006 | 70 | 246 | 1.0 | 5.0 | 0.00 | 0.00 | 0.00 | 55 | 1016.8 |
| 20260508154504 | 69 | 224 | 0.0 | 3.0 | 0.00 | 0.00 | 0.00 | 55 | 1016.8 |
| 20260508153003 | 69 | 230 | 1.0 | 4.0 | 0.00 | 0.00 | 0.00 | 57 | 1017.0 |
| 20260508151609 | 68 | 319 | 1.0 | 9.0 | 0.00 | 0.00 | 0.00 | 59 | 1017.2 |
| 20260508150059 | 68 | 203 | 2.0 | 6.0 | 0.00 | 0.00 | 0.00 | 58 | 1017.4 |
| 20260508144609 | 67 | 222 | 0.0 | 3.0 | 0.00 | 0.00 | 0.00 | 62 | 1017.4 |
| 20260508143105 | 67 | 253 | 0.0 | 2.0 | 0.00 | 0.00 | 0.00 | 65 | 1017.5 |
| 20260508141604 | 66 | 233 | 1.0 | 4.0 | 0.00 | 0.00 | 0.00 | 66 | 1017.8 |
| 20260508140050 | 65 | 256 | 0.0 | 1.0 | 0.00 | 0.00 | 0.00 | 76 | 1018.1 |
| 20260508134557 | 61 | 256 | 0.0 | 1.0 | 0.00 | 0.00 | 0.00 | 87 | 1018.0 |
| 20260508133050 | 55 | 256 | 0.0 | 1.0 | 0.00 | 0.00 | 0.00 | 99 | 1018.2 |
| 20260508131535 | 52 | 269 | 0.0 | 1.0 | 0.00 | 0.00 | 0.00 | 100 | 1018.2 |
| 20260508130034 | 49 | 269 | 0.0 | 0.0 | 0.00 | 0.00 | 0.00 | 99 | 1018.1 |
| 20260508124534 | 47 | 269 | 0.0 | 0.0 | 0.00 | 0.00 | 0.00 | 99 | 1018.2 |
| 20260508123043 | 45 | 269 | 0.0 | 0.0 | 0.00 | 0.00 | 0.00 | 99 | 1018.1 |
| 20260508121530 | 44 | 269 | 0.0 | 0.0 | 0.00 | 0.00 | 0.00 | 98 | 1018.1 |
| 20260508120024 | 42 | 269 | 0.0 | 0.0 | 0.00 | 0.00 | 0.00 | 98 | 1017.8 |
| 20260508114523 | 42 | 269 | 0.0 | 0.0 | 0.00 | 0.00 | 0.00 | 98 | 1017.6 |
| 20260508113023 | 41 | 269 | 0.0 | 0.0 | 0.00 | 0.00 | 0.00 | 98 | 1017.5 |
| 20260508111527 | 41 | 269 | 0.0 | 0.0 | 0.00 | 0.00 | 0.00 | 97 | 1017.1 |
| 20260508110025 | 41 | 269 | 0.0 | 0.0 | 0.00 | 0.00 | 0.00 | 97 | 1017.2 |
| 20260508104520 | 41 | 269 | 0.0 | 0.0 | 0.00 | 0.00 | 0.00 | 97 | 1017.2 |
| 20260508103018 | 42 | 269 | 0.0 | 0.0 | 0.00 | 0.00 | 0.00 | 97 | 1017.2 |
| 20260508101517 | 42 | 269 | 0.0 | 0.0 | 0.00 | 0.00 | 0.00 | 97 | 1017.1 |
| 20260508100017 | 42 | 269 | 0.0 | 0.0 | 0.00 | 0.00 | 0.00 | 97 | 1016.8 |
| 20260508094514 | 42 | 269 | 0.0 | 0.0 | 0.00 | 0.00 | 0.00 | 97 | 1016.6 |
| 20260508093017 | 42 | 269 | 0.0 | 0.0 | 0.00 | 0.00 | 0.00 | 97 | 1016.6 |
| 20260508091511 | 43 | 269 | 0.0 | 0.0 | 0.00 | 0.00 | 0.00 | 97 | 1016.6 |
| 20260508090016 | 43 | 269 | 0.0 | 0.0 | 0.00 | 0.00 | 0.00 | 97 | 1016.6 |
| 20260508084508 | 43 | 269 | 0.0 | 0.0 | 0.00 | 0.00 | 0.00 | 97 | 1016.5 |
| 20260508083008 | 44 | 269 | 0.0 | 0.0 | 0.00 | 0.00 | 0.00 | 97 | 1016.7 |
| 20260508081504 | 44 | 269 | 0.0 | 0.0 | 0.00 | 0.00 | 0.00 | 97 | 1016.6 |
| 20260508080004 | 44 | 269 | 0.0 | 0.0 | 0.00 | 0.00 | 0.00 | 97 | 1016.7 |
| 20260508074501 | 45 | 269 | 0.0 | 1.0 | 0.00 | 0.00 | 0.00 | 97 | 1016.8 |
| 20260508073111 | 45 | 269 | 0.0 | 0.0 | 0.00 | 0.00 | 0.00 | 96 | 1016.8 |
| 20260508071605 | 45 | 269 | 0.0 | 0.0 | 0.00 | 0.00 | 0.00 | 96 | 1016.8 |
| 20260508070054 | 46 | 269 | 0.0 | 0.0 | 0.00 | 0.00 | 0.00 | 96 | 1017.0 |
| 20260508064559 | 46 | 269 | 0.0 | 0.0 | 0.00 | 0.00 | 0.00 | 96 | 1017.2 |
| 20260508063057 | 46 | 269 | 0.0 | 0.0 | 0.00 | 0.00 | 0.00 | 96 | 1017.3 |
| 20260508061550 | 47 | 269 | 0.0 | 0.0 | 0.00 | 0.00 | 0.00 | 96 | 1017.4 |
| 20260508054546 | 47 | 269 | 0.0 | 0.0 | 0.00 | 0.00 | 0.00 | 96 | 1017.5 |
| 20260508053044 | 47 | 269 | 0.0 | 0.0 | 0.00 | 0.00 | 0.00 | 96 | 1017.4 |
| 20260508051559 | 48 | 269 | 0.0 | 0.0 | 0.00 | 0.00 | 0.00 | 95 | 1017.5 |
| 20260508050039 | 48 | 269 | 0.0 | 0.0 | 0.00 | 0.00 | 0.00 | 95 | 1017.5 |
| 20260508044547 | 48 | 269 | 0.0 | 0.0 | 0.00 | 0.00 | 0.00 | 95 | 1017.4 |
| 20260508043039 | 48 | 269 | 0.0 | 0.0 | 0.00 | 0.00 | 0.00 | 94 | 1017.5 |
| 20260508041538 | 49 | 269 | 0.0 | 0.0 | 0.00 | 0.00 | 0.00 | 94 | 1017.4 |
| 20260508040048 | 49 | 269 | 0.0 | 0.0 | 0.00 | 0.00 | 0.00 | 94 | 1017.1 |
| 20260508034546 | 49 | 269 | 0.0 | 0.0 | 0.00 | 0.00 | 0.00 | 93 | 1017.4 |
| 20260508033044 | 50 | 269 | 0.0 | 0.0 | 0.00 | 0.00 | 0.00 | 93 | 1017.7 |
| 20260508031540 | 50 | 269 | 0.0 | 0.0 | 0.00 | 0.00 | 0.00 | 92 | 1017.5 |
| 20260508030036 | 51 | 269 | 0.0 | 0.0 | 0.00 | 0.00 | 0.00 | 92 | 1017.5 |
| 20260508024559 | 51 | 269 | 0.0 | 0.0 | 0.00 | 0.00 | 0.00 | 91 | 1017.1 |
| 20260508023038 | 52 | 269 | 0.0 | 0.0 | 0.00 | 0.00 | 0.00 | 89 | 1017.1 |